Location: Isles
(48.9125°N, 2.8272°E)
Time: 21:13:12
(UTC+00:00)

BREEZE-M DEB (TANK) - Pass Details

Date: 03 February 2023
Orbit: 426 x 13838 km, 45.9° (Epoch: 20 March)

Event Time Altitude Azimuth Distance (km) Brightness Sun altitude
Rises 17:13:46 0° 252° (WSW) 2,384 8.7 -4.6°
Reaches altitude 10° 17:15:28 10° 247° (WSW) 1,549 6.6 -4.9°
Maximum altitude 17:18:19 54° 168° (SSE) 681 2.9 -5.3°
Drops below altitude 10° 17:23:40 10° 91° (E) 2,896 5.4 -6.1°
Enters shadow 17:25:24 - 89° (E) 3,716 5.9 -6.4°
